Wind_Speed
21 24 23 33 39 36 31 33 42 42 38 37 37 37 36 35 33 33 32 29 28 10 16 10 12 21 16 15 8 5 5 4 3 6 6 4 6 8 6 6 10 11 8 8 10 9 10 9 9 6 3 4 4 5
23 27 22 33 37 35 34 37 37 38 37 37 36 34 32 31 32 33 26 28 23 18 7 11 22 26 25 20 18 9 6 4 6 4 4 4 4 4 10 8 11 7 10 4 6 3 3 12 1 4 3 5 4 6
26 30 33 35 35 37 38 37 36 34 35 35 33 31 29 28 30 35 31 24 21 15 15 21 25 28 27 30 23 15 11 10 7 12 4 4 6 5 7 9 8 6 7 6 3 7 7 8 7 6 5 3 5 5
32 36 40 35 38 34 32 33 32 33 32 30 27 24 25 26 29 33 34 29 25 5 4 8 7 11 11 16 29 33 29 16 19 12 6 4 4 3 4 4 7 5 7 10 9 8 4 9 12 9 7 6 6 7
38 49 44 39 36 33 32 31 29 27 24 22 22 23 27 29 28 26 22 21 23 16 3 5 15 19 15 17 18 24 32 29 17 5 3 3 3 3 3 3 9 10 8 6 5 2 3 2 11 11 10 9 8 10
43 43 41 39 37 33 30 26 24 21 19 19 20 21 19 21 27 21 13 22 22 21 3 4 6 11 9 12 16 20 23 24 14 6 3 5 5 3 3 5 9 11 8 4 1 6 5 5 9 10 10 9 9 9
41 40 38 35 33 29 26 23 21 19 19 20 19 19 18 22 23 21 6 6 20 22 4 4 5 3 8 11 11 15 20 8 7 6 6 3 6 9 3 6 2 8 8 6 7 10 6 8 6 11 10 10 9 9
32 32 31 29 27 24 22 20 19 16 20 22 18 17 16 18 22 25 9 10 19 21 6 3 4 2 6 4 4 6 6 7 8 4 2 2 4 4 4 15 5 8 8 8 8 4 2 9 12 12 11 10 10 10
27 26 26 25 23 21 20 18 15 19 20 21 21 21 20 16 11 17 22 16 14 9 4 5 4 2 6 3 4 3 4 2 4 2 2 3 2 4 8 9 13 13 11 11 8 6 9 11 13 13 11 10 11 11
22 22 21 20 19 17 18 11 18 26 24 22 19 7 6 8 10 9 7 9 15 10 10 4 5 3 6 3 4 6 4 3 3 3 6 3 4 9 3 4 11 14 9 13 12 9 11 13 14 13 11 10 9 11
17 17 15 15 15 15 12 11 20 26 22 18 8 7 7 16 17 10 6 7 9 4 10 7 12 4 4 3 3 3 3 3 3 3 3 3 3 1 3 7 11 10 10 7 4 5 9 12 15 14 11 11 10 10
13 12 12 12 14 12 9 19 18 20 10 9 7 9 13 6 4 4 4 4 6 4 8 7 8 6 5 4 3 2 1 1 2 2 2 3 2 2 7 13 13 14 9 7 6 9 10 12 13 12 12 11 10 10
12 11 9 9 13 7 18 25 16 12 11 10 3 3 3 3 4 5 7 4 4 7 7 9 4 5 4 4 1 2 3 2 2 2 3 1 2 5 11 13 15 13 10 9 10 10 13 14 13 12 12 11 11 10
9 8 7 7 9 16 24 18 11 12 5 3 3 4 3 4 4 1 1 3 3 5 12 15 6 3 3 3 1 3 2 2 3 3 2 2 2 3 9 11 15 14 12 11 11 11 12 12 13 12 11 10 10 10
8 8 8 13 22 19 16 13 12 5 3 2 1 2 2 1 1 0 1 3 3 9 13 8 4 3 2 3 1 3 3 3 3 1 2 1 1 5 12 14 15 15 13 11 11 11 12 12 12 13 12 10 9 9
15 19 15 17 19 17 17 16 11 4 3 2 1 2 2 4 3 2 4 5 8 9 9 2 3 3 2 2 4 3 3 2 1 1 1 2 5 11 15 14 14 14 13 12 12 11 11 12 12 11 11 9 8 8
18 16 27 23 15 11 15 8 3 3 3 2 2 1 1 2 2 2 4 4 8 5 2 1 1 1 3 2 3 1 0 2 2 2 3 5 8 12 15 16 15 13 13 13 12 11 11 11 11 11 10 9 8 9
30 25 18 15 13 11 6 2 2 3 3 2 2 2 3 5 3 4 4 6 4 2 2 2 3 2 1 2 2 2 3 5 7 7 9 7 8 10 12 13 13 12 13 13 11 10 10 10 10 10 9 9 9 10
16 10 6 6 4 4 3 2 3 3 4 2 2 2 3 4 8 8 9 8 7 7 6 2 2 1 1 1 2 3 8 7 8 7 9 8 7 7 10 11 11 12 11 11 10 10 9 9 9 9 9 9 9 9
12 10 8 4 3 2 3 3 3 4 2 2 2 2 3 4 5 6 6 6 5 2 4 2 2 2 0 1 2 6 9 10 11 10 8 8 8 8 8 9 10 10 9 8 8 7 7 7 7 7 8 8 8 8
6 7 1 2 4 5 4 3 4 3 3 2 2 2 2 4 3 4 3 4 4 3 2 2 4 6 7 8 7 6 8 8 7 6 9 11 10 9 9 9 8 7 7 6 5 5 5 5 5 6 7 7 7 7
6 6 4 2 4 4 5 5 3 3 2 2 2 2 2 2 2 2 2 4 3 2 2 5 7 8 8 7 6 5 5 5 8 9 12 13 11 10 8 8 7 6 6 5 5 5 4 3 2 3 5 5 5 5
4 3 4 4 3 4 2 3 2 2 1 2 1 2 2 2 2 2 3 2 2 3 7 9 10 10 10 9 10 10 9 10 12 12 11 10 10 9 8 7 6 5 4 4 5 4 4 4 3 3 4 5 6 7
4 3 3 3 4 2 2 3 2 1 1 1 1 2 1 2 1 1 2 2 3 7 8 11 13 12 10 9 9 9 9 8 10 12 10 8 8 8 6 4 4 5 6 6 6 6 7 8 6 5 6 7 7 7
2 5 3 4 3 2 2 1 2 1 1 1 1 1 2 1 2 2 2 5 6 7 9 12 10 8 7 7 8 9 9 10 7 9 9 7 6 5 3 3 2 2 3 3 5 6 7 8 8 7 8 9 9 9
5 5 3 2 1 1 1 1 0 1 1 1 1 1 0 2 2 2 2 6 6 7 11 10 8 8 8 9 10 10 10 9 8 7 7 8 7 6 5 4 3 2 3 4 5 6 7 7 7 7 9 10 9 8
3 3 3 3 1 1 2 2 1 1 1 1 0 1 2 3 3 2 3 7 6 10 10 10 10 8 9 10 10 9 9 9 10 9 7 8 7 7 7 5 4 3 3 4 4 4 4 5 7 8 9 9 10 10
3 3 1 2 1 2 1 1 1 1 1 1 1 3 2 2 1 3 4 9 10 10 8 8 8 9 10 10 9 9 9 9 9 8 7 6 5 5 5 4 4 3 3 3 3 4 5 6 7 8 8 9 10 11
2 2 1 2 0 1 1 1 1 1 0 1 1 1 1 1 3 5 8 11 11 9 8 8 9 9 8 8 8 9 9 10 9 7 5 5 5 4 4 4 4 4 4 4 4 6 7 6 6 7 8 8 10 12
2 4 1 0 1 1 2 3 2 3 4 4 3 3 4 4 5 7 10 11 10 9 9 10 9 9 8 8 9 10 10 8 7 6 6 5 5 5 5 5 5 5 5 5 5 6 6 6 6 6 7 8 10 10
4 2 2 2 2 2 3 4 5 6 6 5 8 6 4 4 5 8 12 13 13 13 12 11 10 9 9 9 9 9 8 7 7 7 7 6 6 7 7 6 6 6 6 6 6 6 6 6 6 7 8 8 9 8
3 2 2 2 1 3 3 3 3 4 3 4 7 7 6 4 4 5 9 16 18 16 16 15 12 12 11 10 9 9 8 7 7 6 8 8 8 8 7 7 7 7 7 7 7 7 7 6 7 8 8 8 7 7
3 3 3 3 2 2 2 2 2 3 3 3 3 4 5 4 4 5 5 9 13 16 15 15 15 15 14 12 10 9 10 8 7 7 9 9 8 8 8 8 8 7 7 7 7 7 7 7 7 7 7 7 7 7
Wind_Direction
252 225 218 215 195 194 196 192 181 183 186 185 189 197 202 205 206 207 214 221 218 230 244 231 236 237 248 243 253 260 287 206 179 201 221 204 229 207 235 219 180 187 194 211 231 249 261 144 137 218 71 106 129 139
250 197 199 188 187 194 193 178 179 182 184 187 193 199 204 208 209 208 208 221 221 225 243 229 239 239 241 244 260 221 258 253 223 242 231 220 217 204 225 226 212 230 221 244 229 238 91 186 303 183 175 161 165 154
197 191 181 178 187 171 170 172 178 183 187 190 194 198 203 207 205 203 208 218 214 231 266 255 252 256 259 246 237 237 239 224 216 233 266 243 238 218 223 238 241 237 231 231 261 224 237 211 211 195 196 176 155 152
195 190 174 176 167 162 170 175 180 182 185 190 193 202 202 200 197 202 209 217 214 215 257 271 257 252 271 249 228 238 234 248 255 225 260 244 243 231 254 282 267 278 175 228 242 247 218 223 214 205 190 182 169 157
146 159 161 154 156 162 162 160 163 171 182 191 197 190 200 207 197 207 203 216 220 205 293 268 285 273 281 234 234 227 233 233 238 206 207 245 265 209 215 279 245 206 214 209 244 220 244 132 190 187 184 183 172 166
141 145 145 145 145 149 151 153 160 165 172 177 184 185 204 190 186 188 202 222 218 221 247 269 268 260 259 231 232 237 235 221 222 196 204 228 219 218 249 240 239 210 205 225 193 144 118 131 152 168 174 169 172 169
127 131 135 137 141 146 152 157 161 164 167 165 169 186 197 173 178 181 181 213 203 204 226 269 247 232 226 230 220 220 195 177 185 187 214 229 192 197 229 238 169 190 180 168 159 139 116 165 185 165 159 158 163 155
120 128 134 140 146 150 156 159 162 159 166 167 165 159 163 175 188 199 189 119 168 177 188 249 252 253 198 177 150 166 146 172 194 196 213 225 173 203 243 233 185 169 154 156 165 188 173 165 154 148 150 157 152 155
118 126 134 141 147 151 155 159 165 165 170 150 153 156 157 176 182 206 204 229 208 221 222 215 240 218 174 157 125 129 146 166 151 211 211 190 175 221 233 206 189 182 173 176 166 152 150 157 157 152 151 154 160 161
122 125 134 138 147 151 160 164 162 173 161 155 152 154 186 205 186 172 200 192 201 210 217 253 222 209 167 166 168 155 187 167 201 177 151 224 239 244 229 194 187 173 170 162 149 157 163 166 165 162 160 161 163 164
131 133 134 143 149 156 160 164 173 155 156 157 177 189 175 150 154 181 189 183 184 210 200 210 201 162 175 186 154 218 169 170 226 145 229 217 238 199 198 164 155 158 155 164 207 186 178 178 166 161 158 162 163 166
137 142 144 150 157 157 161 177 178 160 163 177 166 147 152 166 171 203 194 186 206 202 163 176 160 137 154 225 223 175 168 189 227 137 230 249 65 16 146 143 141 140 136 137 142 154 160 159 164 165 166 169 168 166
149 158 165 170 174 182 167 176 176 194 186 159 144 134 148 145 197 214 186 183 176 161 162 155 122 138 139 206 111 180 172 202 148 195 232 26 56 128 146 143 143 145 140 135 132 138 151 157 164 173 179 181 179 178
171 173 179 187 197 165 172 178 181 162 135 117 165 152 237 183 231 230 97 101 107 133 146 153 133 151 165 156 165 170 92 208 202 229 212 110 66 125 153 150 151 153 152 144 141 141 148 159 162 164 167 171 177 182
176 192 203 166 158 160 163 182 162 133 107 106 151 189 215 273 276 166 115 135 148 152 141 137 106 147 134 122 138 124 172 222 231 233 86 65 47 144 159 162 163 160 159 156 158 162 165 164 164 163 163 166 170 180
144 129 136 143 141 144 155 135 133 123 90 106 91 217 202 219 152 156 142 126 144 148 153 154 145 159 160 152 171 199 203 224 129 27 77 123 138 148 158 166 165 165 168 168 167 170 172 173 176 178 178 178 181 182
139 141 119 114 115 137 141 126 122 105 105 106 144 71 247 57 75 83 106 119 150 153 118 122 140 94 122 174 161 191 190 70 108 129 113 139 139 143 150 154 159 166 172 176 177 179 181 180 182 184 187 190 190 192
127 121 118 114 106 114 122 147 129 93 94 69 118 22 59 54 66 71 94 119 134 115 87 90 131 133 125 178 160 131 128 117 129 122 113 121 135 142 148 155 158 164 169 172 175 176 179 180 181 188 195 201 204 208
90 91 95 126 147 168 156 95 88 99 72 67 32 52 62 70 64 87 93 103 112 114 111 85 76 100 135 44 37 137 156 156 150 132 121 128 135 141 153 161 163 166 168 167 167 171 176 182 191 197 200 200 206 211
104 95 80 74 152 128 87 58 69 93 115 119 69 57 58 79 98 72 83 94 105 67 68 63 88 107 75 126 146 155 166 171 153 138 131 133 136 142 148 153 160 161 164 166 167 172 180 191 200 203 207 213 220 223
220 226 248 22 63 72 87 69 66 78 106 90 94 62 63 76 57 50 40 43 57 43 91 93 107 112 114 118 123 138 147 155 162 167 163 152 151 153 154 154 159 163 181 187 198 211 220 214 223 225 225 223 220 219
133 158 153 61 70 70 69 50 86 95 83 100 77 52 77 86 68 52 48 52 72 82 123 140 142 143 137 129 133 140 149 167 170 155 154 153 146 152 158 157 147 150 152 159 160 161 157 159 161 181 188 192 194 190
114 99 62 50 71 55 64 44 67 44 130 120 148 140 110 115 99 102 85 76 106 148 152 154 155 151 139 131 131 122 113 122 126 136 142 145 147 146 149 157 158 164 176 200 198 207 210 194 182 178 174 167 165 164
100 72 48 52 47 77 58 41 39 56 70 102 130 121 111 93 123 91 128 148 155 157 160 159 156 148 143 144 141 136 130 127 134 137 141 141 147 159 166 183 203 220 229 233 227 225 225 220 214 204 193 183 172 171
108 25 56 52 33 57 59 63 16 97 108 75 139 150 133 300 202 205 190 165 165 158 158 163 165 167 161 168 165 161 161 155 158 165 175 175 184 189 213 215 253 253 241 215 208 212 218 210 206 217 209 197 190 188
74 11 30 54 54 47 99 126 62 101 115 161 133 100 212 215 219 220 155 170 160 168 174 175 178 181 184 185 177 176 184 188 192 202 208 208 215 221 230 239 251 277 236 203 193 201 210 220 220 208 197 194 196 200
79 53 43 38 15 87 113 89 91 208 183 186 73 206 212 228 226 135 159 169 167 176 178 187 191 193 198 196 196 200 205 209 213 222 234 232 232 231 225 218 224 255 217 197 194 198 204 204 195 192 194 195 190 190
64 30 41 353 62 30 123 102 201 194 172 149 219 220 238 249 32 161 172 183 182 186 194 202 208 209 207 204 211 222 227 217 210 209 211 213 208 201 203 213 220 202 184 180 189 198 196 191 191 194 197 199 195 190
57 5 355 35 68 105 202 210 189 179 154 275 266 250 270 252 220 199 188 183 188 195 205 201 194 195 201 208 209 196 184 179 174 179 188 194 183 191 192 192 181 173 169 168 168 162 161 169 179 187 192 194 193 188
354 347 349 129 239 250 195 187 219 219 259 245 251 283 288 279 255 216 199 195 196 197 196 194 197 197 199 195 191 185 184 186 188 188 188 199 212 202 191 186 183 180 178 172 177 181 175 173 173 173 178 176 175 177
305 315 268 242 266 217 202 235 256 266 260 243 244 247 256 282 282 236 218 212 209 205 202 201 199 197 191 185 185 192 206 221 232 233 228 224 212 199 192 186 181 176 172 169 172 175 173 175 172 168 166 167 167 174
279 253 277 272 255 262 251 244 252 246 243 238 240 237 244 251 255 249 229 217 216 215 215 213 213 211 205 205 210 219 229 232 229 230 217 209 200 194 188 182 176 169 166 168 169 171 168 170 172 169 169 171 174 177
268 266 258 275 267 251 254 268 258 267 233 233 231 218 218 228 255 251 238 222 217 213 210 211 214 212 214 221 230 232 227 223 218 203 190 185 185 185 182 176 173 171 168 171 173 170 169 169 171 169 169 170 170 171
Height
1330 1333 1338 1343 1351 1361 1370 1378 1387 1398 1409 1418 1427 1435 1442 1449 1455 1461 1466 1471 1476 1477 1477 1478 1479 1482 1482 1482 1481 1481 1485 1479 1480 1479 1473 1463 1460 1456 1455 1449 1455 1460 1464 1462 1462 1461 1456 1448 1455 1454 1449 1452 1453 1454
1323 1329 1335 1339 1350 1360 1369 1377 1388 1399 1408 1416 1424 1432 1438 1445 1451 1458 1463 1466 1472 1474 1474 1473 1473 1475 1477 1478 1481 1480 1478 1477 1476 1473 1468 1458 1456 1452 1449 1448 1446 1452 1448 1449 1449 1443 1447 1449 1451 1451 1452 1452 1454 1455
1316 1326 1331 1342 1352 1358 1369 1380 1390 1399 1407 1415 1422 1429 1435 1441 1447 1453 1458 1463 1468 1470 1470 1469 1465 1467 1468 1467 1472 1474 1473 1472 1470 1470 1464 1458 1452 1446 1445 1442 1441 1444 1446 1448 1450 1443 1446 1449 1450 1451 1453 1453 1453 1454
1312 1322 1334 1343 1352 1363 1373 1382 1391 1398 1406 1414 1420 1425 1431 1437 1443 1449 1453 1458 1465 1468 1467 1460 1458 1459 1458 1458 1460 1462 1465 1466 1467 1465 1461 1453 1450 1450 1442 1443 1443 1441 1447 1444 1444 1443 1447 1447 1447 1450 1450 1451 1452 1453
1311 1321 1335 1346 1358 1368 1376 1385 1393 1400 1407 1412 1418 1423 1429 1435 1440 1445 1451 1455 1459 1466 1460 1457 1456 1452 1452 1452 1453 1456 1458 1459 1461 1460 1459 1455 1449 1451 1448 1449 1441 1442 1439 1441 1438 1439 1440 1442 1444 1447 1449 1450 1452 1453
1320 1331 1343 1354 1363 1373 1381 1388 1395 1400 1405 1411 1417 1422 1427 1431 1437 1443 1448 1451 1455 1459 1461 1456 1449 1446 1447 1447 1448 1449 1450 1452 1455 1454 1454 1453 1451 1452 1447 1436 1433 1435 1437 1438 1438 1440 1441 1442 1444 1446 1449 1450 1451 1453
1333 1343 1353 1361 1370 1378 1385 1391 1397 1402 1407 1411 1416 1421 1425 1429 1435 1441 1445 1445 1446 1455 1458 1455 1443 1441 1441 1442 1443 1444 1444 1446 1449 1450 1450 1449 1448 1449 1445 1434 1433 1435 1436 1437 1438 1440 1443 1444 1445 1446 1447 1449 1451 1454
1348 1355 1361 1369 1376 1383 1389 1394 1398 1403 1408 1412 1417 1421 1426 1431 1436 1441 1443 1443 1446 1452 1455 1451 1439 1439 1438 1437 1439 1440 1440 1443 1445 1445 1446 1445 1446 1445 1437 1430 1432 1434 1435 1437 1438 1440 1441 1443 1445 1446 1447 1449 1452 1455
1359 1364 1370 1376 1381 1387 1392 1396 1400 1404 1408 1413 1418 1423 1427 1431 1434 1436 1443 1444 1447 1451 1447 1443 1434 1430 1435 1436 1436 1439 1440 1440 1443 1442 1443 1444 1439 1434 1427 1426 1430 1432 1434 1436 1438 1440 1441 1443 1445 1446 1447 1450 1453 1455
1367 1371 1376 1381 1386 1389 1393 1396 1401 1404 1409 1415 1421 1424 1426 1427 1432 1437 1441 1443 1443 1442 1442 1436 1431 1431 1434 1434 1434 1436 1437 1436 1435 1437 1440 1438 1427 1425 1425 1426 1428 1431 1433 1435 1437 1440 1441 1443 1444 1446 1448 1451 1453 1455
1373 1377 1381 1385 1388 1392 1395 1398 1401 1405 1411 1416 1419 1421 1424 1426 1430 1433 1432 1433 1433 1431 1428 1426 1428 1429 1433 1432 1430 1432 1430 1432 1429 1432 1433 1425 1421 1422 1424 1426 1428 1431 1433 1436 1438 1438 1440 1442 1443 1446 1448 1451 1453 1455
1376 1380 1384 1387 1391 1394 1398 1401 1404 1408 1412 1415 1416 1419 1421 1423 1424 1425 1422 1423 1421 1413 1419 1421 1424 1426 1429 1431 1428 1430 1428 1432 1426 1434 1431 1422 1422 1424 1425 1427 1430 1432 1435 1437 1437 1438 1439 1441 1444 1447 1449 1451 1453 1455
1381 1385 1387 1390 1393 1395 1399 1402 1405 1409 1411 1414 1415 1417 1418 1421 1420 1415 1412 1409 1409 1413 1416 1418 1423 1426 1429 1430 1429 1428 1429 1428 1433 1431 1422 1421 1426 1426 1428 1429 1432 1434 1436 1437 1438 1439 1440 1442 1444 1447 1449 1450 1452 1454
1383 1385 1388 1391 1393 1396 1400 1403 1406 1409 1411 1413 1414 1415 1415 1412 1409 1406 1404 1405 1410 1411 1414 1417 1421 1423 1425 1427 1428 1426 1431 1431 1427 1424 1417 1424 1427 1428 1430 1432 1433 1436 1438 1439 1440 1441 1442 1443 1445 1447 1449 1451 1452 1453
1385 1387 1389 1392 1395 1398 1401 1404 1407 1409 1410 1412 1413 1411 1411 1411 1410 1409 1409 1409 1410 1412 1414 1418 1420 1421 1423 1425 1426 1429 1430 1423 1418 1416 1422 1427 1427 1428 1430 1432 1434 1436 1438 1440 1441 1443 1444 1445 1447 1448 1450 1451 1453 1454
1387 1389 1392 1394 1397 1401 1403 1406 1408 1409 1411 1413 1413 1412 1411 1411 1410 1410 1409 1409 1410 1412 1414 1416 1417 1419 1420 1420 1422 1420 1419 1415 1421 1427 1427 1427 1427 1428 1430 1433 1435 1438 1439 1441 1443 1444 1446 1447 1448 1449 1450 1452 1453 1454
1391 1392 1395 1398 1401 1403 1405 1407 1409 1409 1411 1413 1414 1412 1412 1410 1409 1409 1408 1409 1411 1413 1413 1414 1415 1417 1421 1419 1419 1420 1420 1426 1428 1429 1428 1428 1429 1430 1432 1434 1436 1438 1440 1441 1443 1445 1446 1447 1448 1450 1451 1452 1453 1455
1394 1397 1399 1402 1403 1405 1406 1407 1408 1410 1413 1414 1413 1412 1411 1410 1409 1409 1410 1410 1412 1413 1414 1415 1417 1417 1418 1417 1418 1425 1427 1429 1430 1430 1430 1430 1431 1432 1434 1435 1437 1439 1441 1442 1443 1444 1446 1447 1448 1450 1451 1452 1453 1454
1399 1401 1402 1404 1405 1406 1407 1408 1409 1411 1413 1413 1412 1412 1412 1411 1412 1411 1411 1412 1412 1413 1415 1417 1418 1418 1422 1424 1424 1425 1427 1428 1430 1431 1431 1432 1433 1435 1435 1437 1439 1440 1442 1443 1444 1444 1445 1447 1448 1449 1450 1451 1452 1453
1403 1404 1404 1403 1404 1404 1406 1408 1409 1411 1413 1415 1414 1414 1414 1414 1414 1414 1414 1414 1415 1416 1417 1419 1422 1424 1424 1425 1424 1425 1426 1427 1429 1431 1433 1433 1435 1436 1437 1438 1439 1441 1442 1443 1444 1444 1445 1446 1447 1448 1449 1450 1450 1451
1405 1405 1405 1404 1404 1404 1407 1409 1411 1412 1413 1414 1415 1415 1416 1415 1416 1416 1416 1415 1416 1419 1420 1422 1423 1424 1424 1424 1425 1425 1426 1428 1430 1431 1432 1434 1435 1437 1439 1440 1440 1441 1443 1443 1444 1444 1445 1445 1446 1447 1447 1448 1448 1449
1405 1405 1406 1405 1405 1407 1410 1411 1412 1413 1415 1415 1416 1416 1416 1417 1418 1418 1418 1419 1421 1422 1422 1423 1424 1425 1426 1426 1427 1427 1428 1429 1430 1431 1433 1435 1437 1438 1440 1441 1441 1442 1443 1443 1444 1445 1445 1445 1445 1446 1446 1447 1447 1448
1405 1405 1405 1406 1408 1409 1415 1413 1414 1414 1415 1416 1417 1416 1417 1417 1418 1419 1420 1421 1422 1422 1422 1424 1425 1426 1427 1428 1428 1429 1429 1430 1432 1434 1436 1437 1438 1439 1441 1441 1442 1442 1443 1443 1444 1444 1444 1445 1445 1446 1446 1446 1447 1448
1406 1406 1408 1409 1411 1414 1414 1415 1415 1416 1416 1416 1415 1416 1417 1418 1419 1419 1419 1421 1422 1422 1423 1424 1426 1427 1429 1430 1430 1431 1432 1433 1434 1436 1438 1439 1440 1441 1441 1441 1441 1441 1441 1441 1442 1442 1443 1444 1445 1445 1445 1446 1447 1448
1408 1414 1413 1414 1414 1415 1415 1416 1417 1416 1416 1418 1417 1417 1418 1419 1417 1418 1418 1421 1422 1423 1424 1425 1427 1428 1429 1430 1431 1432 1433 1434 1436 1437 1438 1438 1439 1440 1440 1440 1440 1440 1439 1439 1440 1441 1441 1442 1443 1443 1444 1445 1446 1447
1412 1416 1415 1416 1417 1416 1417 1416 1416 1417 1418 1417 1418 1419 1419 1418 1417 1414 1416 1419 1421 1422 1423 1425 1427 1428 1429 1429 1431 1432 1433 1434 1435 1436 1437 1438 1438 1439 1439 1439 1439 1439 1438 1439 1439 1440 1441 1441 1441 1442 1443 1444 1445 1446
1415 1418 1418 1418 1418 1418 1418 1419 1419 1419 1417 1417 1417 1417 1417 1414 1410 1417 1418 1418 1420 1421 1423 1424 1426 1427 1428 1429 1430 1431 1432 1433 1434 1435 1435 1436 1436 1436 1437 1437 1437 1438 1437 1438 1438 1439 1439 1439 1440 1441 1443 1444 1445 1446
1419 1419 1419 1420 1419 1419 1419 1420 1419 1418 1418 1419 1420 1417 1414 1413 1414 1417 1417 1417 1419 1421 1422 1423 1424 1426 1427 1428 1429 1430 1430 1431 1432 1433 1433 1434 1434 1434 1435 1435 1436 1436 1437 1437 1437 1438 1438 1439 1440 1441 1442 1443 1444 1445
1420 1420 1420 1420 1420 1420 1420 1419 1418 1419 1419 1419 1417 1416 1416 1416 1415 1415 1415 1416 1418 1420 1421 1422 1423 1424 1425 1426 1426 1427 1429 1430 1432 1432 1433 1433 1434 1434 1434 1435 1435 1436 1436 1437 1437 1437 1438 1439 1439 1440 1441 1442 1443 1444
1421 1420 1420 1420 1419 1417 1418 1418 1418 1418 1418 1418 1417 1417 1416 1415 1414 1414 1414 1416 1417 1418 1419 1420 1421 1423 1424 1425 1426 1427 1428 1430 1431 1432 1432 1433 1433 1434 1434 1434 1435 1436 1436 1437 1437 1438 1438 1439 1439 1440 1441 1442 1443 1444
1421 1420 1419 1418 1417 1416 1416 1416 1416 1416 1416 1416 1415 1416 1415 1414 1412 1411 1412 1413 1414 1416 1418 1419 1420 1421 1423 1424 1425 1426 1428 1429 1429 1430 1430 1431 1432 1432 1433 1434 1435 1435 1436 1437 1437 1438 1439 1439 1440 1440 1441 1442 1443 1445
1421 1420 1419 1417 1416 1415 1415 1415 1414 1414 1413 1412 1412 1412 1412 1412 1412 1409 1406 1408 1410 1412 1414 1416 1418 1420 1421 1422 1423 1425 1425 1426 1427 1427 1428 1429 1430 1431 1432 1433 1434 1435 1436 1437 1438 1438 1439 1439 1440 1440 1441 1442 1443 1444
1419 1418 1417 1417 1415 1415 1415 1415 1413 1411 1411 1410 1409 1409 1409 1410 1408 1405 1404 1404 1406 1408 1410 1412 1414 1416 1418 1420 1421 1422 1423 1424 1425 1426 1427 1428 1429 1430 1431 1432 1434 1435 1436 1436 1437 1438 1438 1439 1440 1440 1441 1443 1444 1445